Regional Weather Roundup
Issued by NWS

Home | Current Version | Previous Version | Text Only | Print | Product List | Glossary Off
Versions: 1 2 3 4 5 6 7 8 9 10 11 12 13 14 15 16 17 18 19 20 21 22 23 24 25 26 27 28 29 30 31 32 33 34 35 36 37 38 39 40 41 42 43 44 45 46 47 48 49 50

825
ASUS45 KSLC 232210
RWRUT

UTAH REGIONAL WEATHER ROUNDUP
NATIONAL WEATHER SERVICE SALT LAKE CITY UT
300 PM MST THU NOV 23 2017

UTZ001>011-023>025-232300-

NORTHERN UTAH

CITY           SKY/WX    TMP DP  RH WIND       PRES   REMARKS
BRIGHAM CITY   CLOUDY    57  42  55 SW3       30.17S
HILL AFB       CLOUDY    60  40  48 SW8       30.16F
LOGAN          CLOUDY    58  43  57 N7        30.14F
OGDEN          CLOUDY    61  43  51 W6        30.15F
SALT LAKE CITY PTSUNNY   62  44  51 W3        30.14F
TOOELE VALLEY  PTSUNNY   54  45  71 CALM      30.16F
WENDOVER       MOSUNNY   53  41  63 S3        30.15F
HEBER CITY       N/A     64  32  29 S5        30.17F
WEST JORDAN    PTSUNNY   62  42  47 SE5       30.17F

$$

UTZ011>015-024>027-232300-

CENTRAL/NORTHEAST UTAH

CITY           SKY/WX    TMP DP  RH WIND       PRES   REMARKS
PROVO AIRPORT  MOSUNNY   53  40  61 NW7       30.17F
MOAB/CANYONLAN SUNNY     62  32  32 CALM      30.20F
DELTA          MOSUNNY   63  34  34 CALM      30.18F
PRICE          PTSUNNY   56  32  40 S3        30.25F
RICHFIELD      SUNNY     64  34  32 N7        30.21F
ROOSEVELT      CLOUDY    55  32  41 E3        30.21F
VERNAL         CLOUDY    57  34  41 CALM      30.20F

$$

UTZ013>016-019>022-027-232300-

SOUTHERN UTAH

CITY           SKY/WX    TMP DP  RH WIND       PRES   REMARKS
BRYCE CANYON   MOSUNNY   66  15  14 W6        30.32F
CEDAR CITY     PTSUNNY   68  32  26 CALM      30.21F
MILFORD        PTSUNNY   70  33  25 SW15      30.17F
ST GEORGE      PTCLDY    66  34  30 S3        30.13F
HANKSVILLE     SUNNY     61  27  27 CALM      30.23F
KANAB          SUNNY     70  30  23 CALM      30.23F
BLANDING         N/A     62  31  31 S6        30.32F

$$

REGIONAL REPORTS     COLORADO/ARIZONA

CITY           SKY/WX    TMP DP  RH WIND       PRES   REMARKS
CRAIG, CO      CLOUDY    62  36  37 CALM      30.20F
GRAND JUNCTION SUNNY     61  36  39 CALM      30.22F
RIFLE, CO      CLOUDY    59  36  42 CALM      30.24F
MONTROSE, CO   SUNNY     62  33  33 CALM      30.25F
CORTEZ, CO     SUNNY     62  31  31 S10       30.24F
COLORADO CITY    N/A     70  32  24 SE3       30.22F
PAGE, AZ       MOSUNNY   61  31  32 CALM      30.19F
GRAND CANYON   SUNNY     69  15  12 VRB5      30.29F
KINGMAN, AZ    SUNNY     81  32  17 N8        30.11F
FLAGSTAFF, AZ  SUNNY     70  27  20 E9        30.29F

$$

REGIONAL REPORTS    NEVADA/IDAHO/WYOMING

CITY           SKY/WX    TMP DP  RH WIND       PRES   REMARKS
LAS VEGAS, NV  PTSUNNY   79  38  22 CALM      30.06F
ELY, NY        SUNNY     68  25  19 W8        30.22F
ELKO, NV       PTSUNNY   64  39  39 SW3       30.15F
POCATELLO, ID  PTSUNNY   63  40  42 S21G26    30.07F
BURLEY, ID     PTSUNNY   65  40  39 SW20G26   30.04F
FORT BRIDGER,    N/A     60  34  38 W21G30    30.23F
EVANSTON, WY   SUNNY     59  34  39 SW16      30.22F
ROCK SPRINGS,  CLOUDY    57  34  41 W20G29    30.17F
KEMMERER, WY   SUNNY     55  34  44 SW23G29   30.19F

$$




USA.gov is the U.S. government's official web portal to all federal, state and local government web resources and services.